Weather History for Wheeling, WV

Change the Weather History Date:

Monday, July 8, 2013

  Actual Average Record
Temperature  
Mean Temperature 72 °F 72 °F  
Max Temperature 82 °F 82 °F 88 °F (2002)
Min Temperature 62 °F 62 °F 54 °F (2006)
Degree Days  
Heating Degree Days 0 0  
Month to date heating degree days 0 0  
Since 1 June heating degree days 21 38  
Since 1 July heating degree days 0 0  
Cooling Degree Days 7    
Month to date cooling degree days 76  
Year to date cooling degree days 316  
Since 1 June cooling degree days 210  
Growing Degree Days 22 (Base 50)    
Moisture  
Dew Point 65 °F    
Average Humidity 76    
Maximum Humidity 93    
Minimum Humidity 58    
Precipitation  
Precipitation 0.02 in 0.12 in 1.18 in (1991)
Month to date precipitation 1.29 0.91  
Sea Level Pressure  
Sea Level Pressure 30.12 in    
Wind  
Wind Speed 6 mph (SW)    
Max Wind Speed 14 mph    
Max Gust Speed 26 mph    
Visibility 10 miles    
Events Rain , Thunderstorm    
T = Trace of Precipitation, MM = Missing Value Source: NWS Daily Summary

Daily Weather History Graph

Daily Weather History Graph

Search for Another Location

Airport:

Trip Planner

Search our weather history database for the weather conditions in past years. The results will help you decide how hot, cold, wet, or windy it might be!

Date:

Astronomy

Jul. 08, 2013 Rise Set
Actual Time 6:01 AM EDT 8:54 PM EDT
Civil Twilight 5:28 AM EDT 9:26 PM EDT
Nautical Twilight 4:47 AM EDT 10:07 PM EDT
Astronomical Twilight 4:00 AM EDT 10:54 PM EDT
Moon 6:28 AM EDT (7/8) 8:55 PM EDT (7/8)
Length of Visible Light 15h 57m
Length of Day
14h 53m
Waxing Crescent, 0% of the Moon is Illuminated
Jul 8
Waxing Crescent
Jul 15
First Quarter
Jul 22
Full
Jul 29
Last Quarter
Aug 6
New

Hourly Weather History & Observations

Time (EDT) Temp. Heat Index Dew Point Humidity Pressure Visibility Wind Dir Wind Speed Gust Speed Precip Events Conditions
12:22 AM 69.8 °F - 66.2 °F 88% 30.12 in 9.0 mi South 6.9 mph - N/A Thunderstorm Scattered Clouds
12:44 AM 69.8 °F - 68.0 °F 94% 30.13 in 7.0 mi SW 6.9 mph - N/A Thunderstorm Thunderstorm
12:53 AM 69.1 °F - 68.0 °F 96% 30.11 in 7.0 mi WSW 12.7 mph 16.1 mph 0.00 in Rain , Thunderstorm Light Thunderstorms and Rain
1:00 AM 68.0 °F - 66.2 °F 94% 30.12 in 7.0 mi SW 9.2 mph - 0.00 in Rain , Thunderstorm Light Thunderstorms and Rain
1:10 AM 66.2 °F - 62.6 °F 88% 30.12 in 7.0 mi WSW 5.8 mph - 0.01 in Rain Light Rain
1:53 AM 66.0 °F - 61.0 °F 84% 30.11 in 10.0 mi SW 4.6 mph - 0.02 in   Partly Cloudy
2:53 AM 64.9 °F - 62.1 °F 90% 30.10 in 10.0 mi SSW 4.6 mph - 0.00 in   Scattered Clouds
3:53 AM 64.0 °F - 61.0 °F 90% 30.11 in 10.0 mi SSW 5.8 mph - N/A   Partly Cloudy
4:53 AM 63.0 °F - 61.0 °F 93% 30.10 in 10.0 mi SW 3.5 mph - N/A   Mostly Cloudy
5:53 AM 63.0 °F - 61.0 °F 93% 30.12 in 10.0 mi SSW 5.8 mph - N/A   Partly Cloudy
6:53 AM 63.0 °F - 61.0 °F 93% 30.13 in 8.0 mi Calm Calm - N/A   Scattered Clouds
7:53 AM 64.0 °F - 62.1 °F 93% 30.14 in 9.0 mi South 4.6 mph - N/A   Mostly Cloudy
8:48 AM 66.2 °F - 62.6 °F 88% 30.15 in 10.0 mi SSW 5.8 mph - N/A   Mostly Cloudy
8:53 AM 66.9 °F - 64.0 °F 90% 30.15 in 10.0 mi SSW 5.8 mph - N/A   Mostly Cloudy
9:06 AM 66.2 °F - 64.4 °F 94% 30.16 in 10.0 mi SSW 6.9 mph - N/A   Overcast
9:35 AM 69.8 °F - 64.4 °F 83% 30.16 in 10.0 mi SW 11.5 mph - N/A   Mostly Cloudy
9:51 AM 69.8 °F - 64.4 °F 83% 30.16 in 10.0 mi SW 9.2 mph - N/A   Mostly Cloudy
9:53 AM 70.0 °F - 64.9 °F 84% 30.15 in 10.0 mi SW 8.1 mph - N/A   Mostly Cloudy
10:48 AM 73.4 °F - 66.2 °F 78% 30.16 in 10.0 mi West 4.6 mph - N/A   Mostly Cloudy
10:53 AM 73.0 °F - 66.0 °F 79% 30.14 in 10.0 mi WSW 5.8 mph - N/A   Mostly Cloudy
11:53 AM 75.9 °F - 68.0 °F 76% 30.14 in 10.0 mi Variable 5.8 mph - N/A   Mostly Cloudy
12:00 PM 75.2 °F - 66.2 °F 73% 30.16 in 10.0 mi South 8.1 mph - N/A   Scattered Clouds
12:31 PM 75.2 °F - 66.2 °F 73% 30.16 in 10.0 mi Variable 5.8 mph - N/A   Mostly Cloudy
12:53 PM 77.0 °F - 66.9 °F 71% 30.13 in 10.0 mi SW 6.9 mph - N/A   Scattered Clouds
1:53 PM 79.0 °F - 66.9 °F 66% 30.12 in 10.0 mi SSW 8.1 mph - N/A   Mostly Cloudy
2:53 PM 80.1 °F 82.3 °F 66.9 °F 64% 30.10 in 10.0 mi WSW 8.1 mph - N/A   Overcast
3:53 PM 82.0 °F 84.5 °F 66.9 °F 60% 30.09 in 10.0 mi WSW 8.1 mph - N/A   Scattered Clouds
4:53 PM 82.0 °F 85.5 °F 69.1 °F 65% 30.08 in 10.0 mi SW 6.9 mph - N/A   Scattered Clouds
5:53 PM 82.0 °F 84.9 °F 68.0 °F 62% 30.08 in 10.0 mi SW 10.4 mph - N/A   Partly Cloudy
6:11 PM 82.4 °F 85.4 °F 68.0 °F 62% 30.09 in 10.0 mi WSW 9.2 mph - N/A   Mostly Cloudy
6:53 PM 79.0 °F - 66.9 °F 66% 30.07 in 10.0 mi WSW 5.8 mph - N/A   Partly Cloudy
7:53 PM 78.1 °F - 68.0 °F 71% 30.09 in 10.0 mi WSW 5.8 mph - N/A   Clear
8:53 PM - - - N/A% 30.11 in - North - - N/A   Unknown
9:53 PM - - - N/A% 30.11 in - North - - N/A   Unknown
10:53 PM - - - N/A% 30.12 in - North - - N/A   Unknown
11:53 PM - - - N/A% 30.13 in - North - - N/A   Unknown